Location: Tierra del Sol
(32.6128°N, 116.3319°W)
Time: 15:56:16
(UTC-07:00)

Vanguard 2 - Pass Details

Date: 29 April 2018
Orbit: 554 x 2938 km, 32.9° (Epoch: 18 September)

Event Time Altitude Azimuth Distance (km) Brightness Sun altitude
Rises 01:26:34 0° 282° (WNW) 4,603 11.5 -41.7°
Enters shadow 01:27:20 - 282° (WNW) 4,326 11.3 -41.7°
Reaches altitude 10° 01:30:19 10° 279° (W) 3,228 - -41.5°
Maximum altitude 01:37:32 54° 204° (SSW) 1,034 - -41.1°
Drops below altitude 10° 01:42:11 10° 126° (SE) 2,105 - -40.8°
Sets 01:44:11 0° 121° (ESE) 2,884 - -40.6°
